Regional Weather Roundup
Issued by NWS Sioux Falls, SD

Home | Current Version | Previous Version | Graphics & Text | Print | Product List | Glossary On
Versions: 1 2 3 4 5 6 7 8 9 10 11 12 13 14 15 16 17 18 19 20 21 22 23 24 25 26 27 28 29 30 31 32 33 34 35 36 37 38 39 40 41 42 43 44 45 46 47 48 49 50
000
ASUS43 KFSD 280210
RWRFSD

WEATHER ROUNDUP FOR SE SOUTH DAKOTA/SW MINNESOTA/NW IOWA
NATIONAL WEATHER SERVICE SIOUX FALLS SD
900 PM CDT FRI MAR 27 2015

NOTE: "FAIR" INDICATES FEW OR NO CLOUDS BELOW 12,000 FEET WITH NO
SIGNIFICANT WEATHER AND OR OBSTRUCTIONS TO VISIBILITY.


SDZ038>040-050-052>070-280300-
SOUTHEAST SOUTH DAKOTA

CITY           SKY/WX    TMP DP  RH WIND       PRES   REMARKS
CHAMBERLAIN    CLOUDY    35  30  83 SE9       29.95R WCI  27
HURON          MOCLDY    31  28  89 SE8       30.01R WCI  23
MADISON        CLOUDY    32  23  69 SE10      30.03R WCI  24
MITCHELL       CLOUDY    34  27  75 S12       30.01F WCI  25
SIOUX FALLS    CLOUDY    33  22  63 S14       30.05S WCI  23
WINNER         FAIR      41  31  67 SE13      29.92R
YANKTON        CLOUDY    34  25  69 SE10      30.05R WCI  26
$$

MNZ071-072-080-081-089-090-097-098-280300-
SOUTHWEST MINNESOTA

CITY           SKY/WX    TMP DP  RH WIND       PRES   REMARKS
FAIRMONT       CLOUDY    30  18  59 SE6       30.12R WCI  24
JACKSON        CLOUDY    34  14  44 S6        30.11R WCI  29
LUVERNE        CLOUDY    32  23  69 SE5       30.09R WCI  27
MARSHALL       CLOUDY    34  12  40 SE8       30.10S WCI  27
MONTEVIDEO     CLOUDY    30  21  69 S3        30.13R
PIPESTONE      LGT SNOW  30  25  80 S5        30.05R WCI  25
REDWOOD FALLS  CLOUDY    31  21  66 E7        30.12R WCI  24
TRACY          LGT SNOW  33  19  56 S3        30.11R
WINDOM         CLOUDY    34  12  40 CALM      30.11R
WORTHINGTON    CLOUDY    30  18  59 SE7       30.10R WCI  23
$$

IAZ001>003-012>014-020>022-031-032-NEZ013-014-SDZ071-280300-
NORTHWEST IOWA

CITY           SKY/WX    TMP DP  RH WIND       PRES   REMARKS
CHEROKEE       CLOUDY    34  17  50 SE5       30.11R WCI  30
DENISON        MIX PCPN  34  18  51 S5        30.10S WCI  30
ESTHERVILLE    CLOUDY    31  19  61 SE5       30.11R WCI  26
LE MARS        CLOUDY    34  23  64 S6        30.09R WCI  29
ORANGE CITY    CLOUDY    34  23  64 S5        30.08R WCI  30
SHELDON        MIX PCPN  32  21  64 SE8       30.08R WCI  25
SIOUX CITY     CLOUDY    34  22  61 SE8       30.09F WCI  27
SPENCER        CLOUDY    33  19  56 W9        30.11R WCI  25
STORM LAKE     CLOUDY    34  19  55 SW8       30.10F WCI  27
$$

ABBREVIATIONS USED IN REMARKS
   TC - TEMPERATURE IN CELSIUS
  WCI - WIND CHILL INDEX
   HX - HEAT INDEX
  VSB - VISIBILITY



USA.gov is the U.S. government's official web portal to all federal, state and local government web resources and services.